Location: Coffee Ditch
(40.9640°N, 122.7500°W)
Time: 08:05:04
(UTC+00:00)

SL-16 R/B - Pass Details

Date: 08 September 2024
Orbit: 985 x 1006 km, 99.7° (Epoch: 05 October)

Event Time Altitude Azimuth Distance (km) Brightness Sun altitude
Exits shadow 12:28:55 20° 262° (W) 2,120 3.7 -14.8°
Maximum altitude 12:29:21 20° 268° (W) 2,114 3.7 -14.7°
Drops below altitude 10° 12:33:47 10° 314° (NW) 2,772 4.6 -13.9°
Sets 12:37:02 0° 330° (NNW) 3,730 5.4 -13.3°
